Temperature
26 25 25 25 26 26 26 25 25 26 26 26 25 25 25 25 25 25 25 24 24 23 23 22 21 21 20 20 20 19 19 18 18 18 18 17 17 17 16 16 16 16 16 16
25 25 26 27 26 26 26 25 25 26 26 26 25 25 25 25 25 25 25 24 24 23 23 22 21 21 20 20 20 19 19 18 18 18 17 17 17 17 17 16 16 16 16 15
25 26 27 26 26 26 26 25 25 25 25 25 25 24 25 25 25 25 25 25 24 24 23 22 21 21 20 20 20 19 19 18 18 18 17 17 17 17 16 16 16 16 16 15
26 26 26 26 26 26 25 25 25 25 24 24 25 23 24 25 25 25 25 24 24 23 23 22 21 20 20 20 19 19 19 18 18 18 17 17 17 17 16 16 16 16 15 15
25 26 26 25 26 26 25 25 25 25 24 24 24 24 24 25 24 24 24 24 24 23 22 21 21 20 20 19 19 19 18 18 18 17 17 17 17 16 16 16 16 16 15 15
26 26 26 26 26 26 26 25 25 25 24 23 24 24 24 25 25 25 25 24 23 23 22 21 20 20 19 19 18 18 18 18 17 17 17 17 17 16 16 16 16 16 15 15
25 26 26 26 25 25 25 24 23 23 22 23 25 25 24 25 26 25 25 24 23 23 22 21 20 19 19 18 18 18 17 17 17 17 17 17 16 16 16 16 16 15 15 15
24 24 26 26 25 24 25 24 23 22 23 24 25 24 24 26 26 25 25 24 23 22 22 21 20 19 19 18 18 17 17 17 17 17 17 17 16 16 16 16 16 15 15 15
25 24 26 26 26 25 24 24 25 24 24 23 24 24 24 25 25 25 24 24 23 22 22 21 20 19 18 18 17 17 17 17 17 17 16 16 16 16 16 15 15 15 15 15
25 24 25 25 25 25 25 25 24 23 23 22 24 24 23 24 24 24 24 23 23 22 21 21 20 19 18 18 17 17 17 17 17 16 16 16 16 16 15 15 15 15 15 15
25 24 24 24 24 24 24 24 24 23 23 23 22 23 25 24 24 24 24 23 22 22 21 21 20 19 18 18 17 17 17 17 16 16 16 16 16 15 15 15 15 15 15 15
24 24 23 24 25 25 24 24 24 22 23 23 23 23 25 25 24 24 23 23 22 22 21 20 20 19 18 18 17 17 17 17 16 16 16 16 15 15 15 15 15 14 14 14
23 23 22 23 23 23 23 24 24 23 23 22 22 22 24 24 24 23 23 23 22 22 21 20 19 19 18 18 17 17 17 17 16 16 16 15 15 15 15 15 14 14 14 14
21 22 22 22 22 23 22 23 23 23 22 22 23 23 23 23 23 22 22 22 22 21 20 20 19 19 18 18 17 17 17 17 16 16 15 15 15 15 15 14 14 14 14 14
22 21 22 23 23 23 23 23 23 23 22 22 23 23 22 22 22 22 22 21 21 21 20 20 19 18 18 18 17 17 17 16 16 16 15 15 15 15 14 14 14 14 13 13
22 21 22 22 23 23 22 23 23 23 23 23 22 22 22 22 21 21 20 20 20 20 20 19 19 18 18 18 17 17 17 16 16 15 15 15 15 14 14 14 14 13 13 13
21 21 20 20 22 22 21 23 23 22 23 22 21 21 21 20 20 19 19 19 19 19 18 19 18 18 18 18 17 17 16 16 15 15 15 15 14 14 14 14 13 13 13 13
21 21 20 20 21 20 22 22 22 22 22 22 21 21 21 20 19 18 18 18 17 17 17 18 18 18 18 18 17 17 16 16 15 15 15 14 14 14 14 13 13 13 13 12
21 20 20 20 19 20 21 21 21 21 20 21 21 20 20 19 19 18 17 17 17 17 17 17 17 17 17 17 17 16 16 15 15 15 14 14 14 13 13 13 13 13 12 12
20 20 19 19 18 19 20 20 21 20 19 20 20 19 19 19 17 17 17 16 16 16 16 16 16 16 16 16 16 16 15 15 15 14 14 14 14 13 13 13 13 12 12 12
18 18 18 18 18 19 19 20 20 18 18 19 19 18 18 17 17 16 16 15 15 15 15 15 15 15 15 16 16 15 15 15 14 14 14 14 13 13 13 13 12 12 12 11
18 18 18 18 17 18 19 19 19 18 18 18 18 17 17 16 16 15 15 15 14 14 14 14 14 15 15 15 15 15 14 14 14 14 13 13 13 13 12 12 12 12 11 11
19 19 18 18 18 18 18 18 18 18 18 17 17 16 16 16 15 15 14 14 14 14 14 14 14 14 14 14 14 14 14 14 13 13 13 13 12 12 12 12 12 11 11 11
19 19 18 18 18 18 18 17 17 17 17 16 16 16 15 15 15 14 14 14 13 13 13 13 13 13 13 13 13 13 13 13 13 13 12 12 12 12 12 12 11 11 11 11
17 18 17 17 17 17 17 16 16 16 16 15 15 15 15 14 14 14 14 13 13 13 13 13 13 13 13 13 13 13 13 13 12 12 12 12 12 12 11 11 11 11 11 11
17 17 16 16 17 16 16 16 15 15 15 15 14 14 14 14 13 13 13 13 12 12 12 12 12 12 12 12 12 12 12 12 12 11 11 11 11 11 11 11 11 11 10 10
Wind_Speed
6 6 5 4 4 5 5 5 4 1 2 3 5 4 4 7 6 6 6 6 6 6 7 7 6 7 6 4 3 6 7 5 4 2 2 3 3 2 3 3 4 3 4 5
6 7 5 4 4 6 6 6 5 2 1 3 5 6 5 6 7 6 6 6 6 6 7 7 7 6 5 4 3 5 6 6 5 3 2 3 3 2 3 2 3 3 4 5
8 3 3 5 6 7 7 5 5 5 4 5 7 6 6 7 7 6 5 4 5 7 8 8 7 6 6 5 3 4 6 6 5 4 2 3 3 2 2 2 2 2 4 3
7 5 4 6 7 6 5 3 5 6 5 4 4 4 4 6 7 7 6 4 4 5 6 7 7 7 6 5 3 4 5 5 5 5 3 4 3 2 2 2 2 2 2 2
6 4 6 7 5 5 4 5 7 8 7 8 8 6 4 7 7 8 7 6 5 5 6 6 7 7 6 5 3 3 4 5 5 4 4 3 2 2 2 2 2 1 1 2
8 5 5 5 4 5 5 8 9 8 6 8 9 6 3 4 5 6 7 8 7 6 6 7 7 7 6 6 4 4 4 4 3 3 4 3 3 2 3 2 2 1 1 1
8 9 7 4 7 7 7 6 4 4 5 5 4 3 2 5 6 5 4 6 8 7 8 7 7 7 7 6 5 4 4 3 3 3 3 3 3 2 3 2 2 1 1 1
7 6 6 5 6 5 6 7 4 4 4 3 2 2 4 7 7 6 5 5 7 8 7 8 8 7 7 7 5 5 4 4 3 3 3 3 3 2 1 2 2 2 1 2
5 1 2 3 3 6 6 6 6 7 9 7 3 2 4 7 7 5 5 5 6 7 8 8 8 7 7 7 6 5 5 4 4 3 2 2 3 2 1 1 1 1 1 2
6 5 3 3 4 7 8 7 5 5 4 5 4 3 4 6 6 5 4 4 5 5 6 7 7 6 6 6 5 5 5 5 4 3 2 2 2 3 2 1 1 1 1 2
7 7 5 5 6 6 6 7 6 5 6 5 4 1 4 5 5 4 3 3 4 5 6 5 6 6 6 6 6 5 5 5 4 3 3 2 2 2 3 2 2 2 2 2
4 5 8 6 3 3 5 6 7 5 6 5 5 1 5 6 5 4 3 2 3 5 5 5 5 5 6 6 6 5 5 5 4 4 3 3 2 2 3 3 2 2 2 1
4 4 6 4 3 3 4 6 7 7 7 6 6 0 4 4 4 3 3 2 2 4 5 5 4 4 5 5 5 5 5 5 5 4 4 3 3 3 3 2 3 2 2 1
4 7 9 8 6 4 6 7 7 7 7 8 7 2 1 2 4 4 4 3 2 3 4 4 4 4 4 5 5 5 5 4 5 4 4 4 4 4 3 2 2 2 1 1
4 9 11 10 10 9 10 10 10 10 10 10 8 7 3 3 4 4 4 3 2 1 1 3 3 4 4 4 4 5 4 4 4 5 5 5 4 3 3 2 2 2 2 2
6 8 10 11 11 11 12 12 12 12 11 11 9 6 4 4 4 5 5 5 4 3 2 0 2 3 4 4 4 4 4 4 4 5 5 4 3 3 3 3 2 2 2 2
6 8 9 10 10 10 11 9 9 8 8 7 7 3 3 4 5 5 6 6 6 6 5 4 2 2 3 3 4 4 4 4 4 4 4 3 3 2 3 3 3 3 3 2
8 8 6 8 9 10 2 3 2 2 3 3 2 3 4 3 4 5 5 5 6 7 6 5 4 4 2 1 2 2 2 3 4 4 3 3 3 3 3 3 3 3 3 2
8 7 6 6 8 9 3 1 1 2 3 3 2 2 3 3 1 3 6 7 6 6 6 5 5 4 3 2 2 2 2 3 3 4 3 3 3 3 4 3 4 3 3 3
6 7 6 6 7 7 1 3 3 2 2 3 3 3 4 4 2 3 6 7 7 6 5 5 5 5 4 3 1 2 3 3 4 3 3 3 4 4 5 5 3 2 3 4
6 7 9 9 9 5 1 2 1 2 1 4 4 4 4 3 3 4 5 6 6 6 6 6 5 5 4 3 2 2 3 3 2 2 2 3 4 4 4 4 3 3 3 4
5 5 7 7 8 5 1 1 1 2 3 2 3 3 3 4 4 4 4 5 6 6 6 6 5 5 5 3 2 2 4 2 1 1 2 4 4 4 4 4 4 4 4 4
5 3 3 3 2 2 3 3 3 3 3 3 4 4 3 4 3 3 3 4 4 5 6 5 5 6 5 4 3 3 3 1 1 1 2 3 4 3 4 4 5 4 4 4
5 3 4 4 3 2 2 3 3 3 3 3 3 3 4 4 4 4 4 3 4 4 5 5 5 6 5 4 4 3 2 1 1 2 3 3 3 3 3 3 4 4 4 4
5 4 6 7 5 5 3 3 3 4 4 4 4 4 4 5 5 5 5 4 4 4 4 5 5 6 5 4 4 3 2 1 1 2 3 3 3 3 3 3 3 4 4 5
7 7 7 6 4 4 5 4 5 5 5 4 4 5 5 5 5 5 5 4 4 4 4 5 6 6 6 5 4 4 3 1 2 2 3 2 2 2 2 2 2 2 3 4
Wind_Direction
226 236 245 246 253 281 299 294 288 249 211 251 261 257 205 180 198 208 195 184 174 162 151 140 135 137 134 137 134 125 133 130 120 115 109 111 104 104 87 82 83 63 66 75
242 237 252 269 273 274 274 278 282 258 243 266 266 261 222 184 196 210 205 186 174 161 149 142 148 140 133 130 138 139 130 128 125 125 116 123 122 114 102 83 89 76 66 66
240 256 254 254 250 260 267 281 307 314 313 278 272 258 214 186 190 186 195 187 172 165 158 156 150 134 130 132 147 133 131 134 135 128 113 100 84 78 92 105 92 72 74 61
252 249 267 258 257 267 283 318 300 288 283 276 255 278 214 191 182 178 182 189 171 154 146 145 141 135 137 135 143 136 130 129 125 125 127 132 141 145 149 137 130 119 115 112
257 242 253 260 272 287 293 301 286 281 279 279 262 253 212 172 182 181 179 173 162 148 143 140 134 131 129 124 117 108 109 113 114 126 134 141 144 166 150 128 122 133 124 118
258 261 263 279 289 276 280 274 268 256 257 259 252 244 199 180 170 161 162 163 160 151 139 132 127 128 123 118 116 105 103 104 120 150 156 170 163 161 145 143 146 143 119 96
243 232 226 240 263 243 249 265 273 240 220 238 234 228 152 115 115 123 144 154 151 147 142 138 135 140 139 138 140 136 127 132 155 177 176 180 165 156 138 139 136 136 142 142
248 233 201 204 245 267 260 259 262 282 283 297 238 218 123 115 116 123 131 137 142 145 144 144 144 144 145 146 153 156 152 157 167 185 188 180 140 122 113 145 143 157 165 177
288 265 146 186 241 263 273 269 274 277 286 286 253 152 136 129 116 118 127 136 141 145 145 146 146 152 152 151 157 163 161 167 170 187 189 150 127 125 131 163 128 141 168 169
285 292 235 195 229 237 257 287 293 281 287 285 273 223 163 138 130 134 129 128 136 143 144 147 148 152 151 151 162 171 175 179 173 177 183 179 154 148 157 182 155 193 202 172
275 272 246 206 222 247 230 243 256 269 268 274 292 22 93 126 126 124 113 128 143 146 148 150 146 151 147 150 168 180 182 176 170 181 195 190 172 176 174 175 179 216 217 190
280 287 272 244 206 265 273 267 271 272 282 290 294 49 96 98 102 110 112 123 132 139 142 143 146 153 152 161 177 185 188 179 175 187 196 204 184 181 184 182 185 222 238 220
330 275 276 250 198 214 254 257 266 277 278 274 276 226 111 105 98 83 80 100 119 136 139 139 145 160 160 168 179 187 194 181 175 189 203 205 193 201 208 200 185 209 219 213
314 272 270 279 303 303 275 272 268 268 271 274 276 282 149 90 75 56 40 55 86 131 143 152 159 170 173 179 189 191 197 181 174 187 206 208 205 203 199 202 184 202 204 209
260 269 273 278 285 285 278 272 266 263 264 274 292 307 337 40 55 41 26 22 35 33 146 164 174 187 189 189 201 202 187 182 183 191 210 211 209 199 187 191 193 201 191 215
247 272 283 282 276 272 274 268 264 263 267 274 281 293 26 45 49 35 15 9 8 356 350 298 212 210 206 201 206 209 193 186 190 199 212 206 203 193 185 192 190 178 189 216
246 266 279 279 282 279 265 265 253 254 262 274 284 323 28 39 31 28 16 9 360 5 357 340 309 262 236 216 207 220 201 189 197 206 209 198 189 185 192 197 190 192 199 207
267 267 267 275 278 261 257 36 8 320 315 327 331 22 26 35 51 47 32 26 7 359 353 343 330 318 305 242 216 218 190 197 203 204 199 191 186 189 195 199 196 202 199 203
253 262 265 262 267 268 256 332 341 287 286 337 353 35 23 24 66 50 31 26 11 359 350 342 334 325 318 290 215 206 211 217 212 203 195 203 201 201 203 208 209 201 193 211
238 252 254 262 266 267 15 39 10 291 249 45 34 27 9 5 329 18 21 13 1 360 352 344 337 330 319 311 257 214 227 215 220 210 204 208 204 208 211 209 210 209 205 208
215 229 234 250 259 269 36 45 347 254 66 50 28 18 7 350 359 13 10 1 352 352 345 344 339 330 314 310 282 245 247 232 229 228 222 212 206 211 215 204 200 205 207 209
225 233 233 239 246 252 75 140 289 30 51 12 8 7 357 353 14 6 359 353 342 342 342 341 337 333 334 325 293 257 259 252 211 216 236 223 214 215 218 197 200 204 206 208
233 248 262 257 265 14 44 29 16 19 0 359 7 359 349 339 337 338 338 334 322 329 336 335 331 329 335 336 317 275 276 280 231 227 248 236 219 211 203 200 203 203 206 213
266 283 273 270 255 284 329 346 349 351 347 349 342 332 330 321 320 317 313 313 321 326 326 327 326 320 321 327 318 302 302 276 268 252 250 246 222 207 208 208 199 200 204 213
290 289 271 271 278 287 282 323 337 333 328 326 331 330 327 318 316 315 315 317 318 318 317 319 315 309 311 322 322 318 307 296 279 281 271 255 236 212 215 220 214 211 213 212
256 261 261 264 276 292 297 312 321 319 315 315 316 315 314 312 310 309 309 310 310 309 312 314 313 312 310 314 320 322 320 317 291 285 287 274 255 229 208 205 228 234 221 218
Height
1496 1498 1500 1496 1494 1495 1495 1498 1499 1497 1493 1497 1499 1498 1496 1498 1500 1501 1503 1505 1507 1509 1511 1514 1516 1518 1519 1521 1522 1523 1523 1524 1526 1527 1527 1528 1529 1529 1530 1530 1530 1530 1530 1529
1497 1498 1494 1491 1492 1493 1495 1499 1499 1495 1492 1495 1497 1496 1493 1494 1497 1499 1500 1502 1504 1507 1510 1512 1515 1517 1518 1520 1521 1522 1523 1524 1525 1526 1527 1528 1529 1529 1529 1530 1530 1530 1530 1530
1496 1494 1490 1491 1493 1495 1495 1497 1498 1498 1494 1493 1497 1498 1493 1491 1493 1496 1498 1500 1502 1505 1508 1511 1513 1515 1517 1519 1521 1522 1522 1524 1525 1525 1527 1528 1528 1529 1529 1529 1530 1530 1530 1530
1492 1490 1491 1492 1493 1493 1499 1493 1494 1496 1501 1503 1498 1510 1496 1490 1491 1493 1496 1499 1501 1503 1506 1509 1512 1514 1516 1518 1520 1521 1522 1523 1524 1525 1526 1527 1527 1528 1529 1529 1529 1529 1530 1529
1492 1489 1491 1493 1492 1492 1495 1492 1493 1495 1499 1502 1497 1503 1497 1488 1492 1491 1493 1497 1500 1502 1505 1507 1510 1512 1515 1517 1519 1520 1521 1522 1523 1524 1525 1526 1527 1528 1528 1528 1529 1529 1529 1529
1489 1487 1488 1489 1489 1491 1491 1493 1493 1493 1499 1510 1496 1498 1499 1488 1487 1487 1490 1494 1498 1501 1504 1507 1509 1511 1514 1516 1517 1519 1520 1521 1522 1523 1525 1525 1526 1527 1527 1527 1528 1528 1528 1528
1490 1486 1486 1488 1492 1490 1492 1500 1510 1511 1513 1505 1486 1491 1493 1482 1481 1485 1489 1492 1496 1499 1502 1505 1508 1510 1513 1514 1516 1518 1519 1520 1521 1522 1524 1525 1525 1526 1526 1526 1527 1527 1527 1527
1494 1494 1485 1486 1490 1493 1491 1495 1512 1519 1512 1500 1488 1492 1488 1479 1482 1485 1489 1492 1495 1498 1501 1504 1507 1509 1512 1513 1515 1517 1518 1519 1520 1521 1522 1523 1524 1525 1525 1526 1526 1526 1526 1526
1491 1492 1483 1484 1486 1489 1492 1492 1490 1499 1499 1502 1493 1488 1485 1479 1483 1486 1489 1492 1494 1497 1500 1503 1506 1508 1510 1512 1513 1515 1516 1518 1519 1520 1521 1522 1522 1523 1524 1524 1524 1525 1525 1525
1487 1493 1486 1485 1487 1487 1489 1490 1494 1500 1509 1511 1498 1491 1492 1486 1485 1487 1489 1492 1494 1497 1499 1502 1505 1507 1509 1510 1512 1514 1515 1516 1517 1518 1519 1520 1521 1521 1522 1522 1523 1523 1523 1523
1486 1492 1490 1487 1489 1490 1489 1491 1492 1495 1496 1507 1510 1502 1480 1482 1483 1486 1488 1491 1493 1496 1498 1501 1503 1505 1507 1509 1510 1512 1513 1514 1515 1516 1518 1519 1519 1520 1520 1520 1521 1521 1521 1521
1486 1490 1492 1486 1481 1482 1485 1488 1491 1503 1500 1495 1502 1500 1478 1480 1483 1485 1488 1490 1493 1495 1497 1499 1501 1503 1505 1506 1508 1509 1511 1512 1513 1514 1515 1516 1517 1517 1518 1518 1518 1518 1519 1519
1491 1494 1499 1495 1493 1487 1487 1486 1487 1490 1495 1498 1504 1500 1481 1482 1484 1486 1488 1490 1492 1494 1496 1498 1500 1502 1503 1505 1506 1507 1509 1510 1510 1512 1513 1514 1514 1515 1515 1515 1516 1516 1516 1517
1495 1494 1498 1503 1496 1490 1491 1488 1487 1491 1499 1498 1493 1491 1485 1484 1486 1487 1489 1490 1492 1493 1495 1497 1499 1500 1501 1503 1504 1505 1506 1507 1508 1509 1510 1510 1511 1512 1512 1512 1513 1513 1513 1513
1494 1495 1490 1487 1485 1485 1486 1487 1486 1489 1489 1493 1490 1487 1486 1485 1486 1488 1490 1490 1491 1493 1494 1495 1497 1498 1499 1500 1502 1503 1503 1504 1504 1505 1506 1507 1507 1508 1509 1509 1509 1510 1510 1510
1491 1493 1491 1490 1484 1483 1485 1483 1483 1484 1484 1485 1485 1487 1485 1486 1487 1489 1491 1491 1492 1493 1493 1494 1495 1496 1497 1497 1498 1500 1500 1501 1501 1502 1502 1503 1504 1505 1505 1506 1506 1506 1507 1507
1490 1492 1496 1495 1485 1484 1489 1479 1479 1481 1480 1483 1487 1488 1485 1487 1489 1491 1492 1493 1493 1493 1493 1493 1493 1494 1494 1494 1495 1496 1497 1497 1498 1498 1499 1500 1500 1501 1501 1502 1502 1502 1503 1503
1490 1491 1493 1494 1492 1500 1483 1475 1476 1479 1481 1482 1483 1485 1486 1488 1491 1492 1493 1493 1493 1492 1492 1491 1491 1491 1491 1491 1491 1492 1492 1494 1494 1495 1496 1496 1497 1497 1498 1498 1498 1499 1499 1499
1488 1491 1494 1495 1496 1488 1481 1477 1478 1482 1484 1483 1484 1486 1487 1488 1489 1491 1492 1493 1493 1492 1491 1490 1489 1489 1488 1488 1488 1489 1489 1490 1491 1491 1492 1492 1493 1493 1493 1494 1494 1495 1495 1495
1487 1489 1494 1494 1499 1497 1486 1480 1479 1482 1488 1485 1485 1487 1488 1489 1491 1493 1493 1492 1492 1491 1490 1488 1487 1486 1486 1486 1486 1486 1486 1486 1486 1487 1487 1488 1488 1488 1489 1489 1490 1490 1491 1491
1490 1491 1494 1496 1497 1488 1483 1481 1481 1492 1492 1487 1487 1488 1490 1491 1492 1493 1492 1492 1491 1490 1488 1487 1485 1484 1483 1483 1482 1482 1482 1482 1482 1483 1483 1483 1483 1484 1485 1485 1486 1486 1487 1487
1487 1490 1490 1491 1496 1493 1483 1482 1486 1488 1487 1487 1488 1489 1490 1491 1491 1491 1491 1490 1490 1488 1487 1485 1483 1482 1480 1480 1479 1479 1479 1479 1479 1478 1478 1478 1479 1480 1480 1481 1481 1482 1483 1483
1481 1483 1484 1486 1488 1484 1483 1484 1485 1486 1487 1488 1488 1489 1490 1490 1490 1490 1489 1489 1488 1487 1485 1483 1481 1480 1478 1477 1476 1475 1475 1475 1474 1474 1474 1474 1475 1475 1476 1477 1477 1478 1479 1479
1479 1479 1480 1482 1482 1483 1484 1484 1485 1486 1486 1487 1488 1488 1488 1488 1488 1488 1487 1486 1485 1484 1483 1481 1479 1478 1476 1475 1474 1473 1472 1471 1470 1470 1470 1470 1471 1471 1471 1472 1473 1473 1474 1474
1480 1480 1480 1481 1482 1482 1482 1484 1485 1485 1485 1485 1486 1486 1487 1486 1486 1486 1485 1484 1483 1482 1480 1479 1477 1476 1474 1473 1471 1470 1469 1467 1466 1466 1466 1466 1467 1467 1467 1468 1468 1469 1469 1470
1479 1480 1481 1481 1481 1482 1482 1482 1483 1483 1483 1484 1484 1484 1484 1484 1483 1483 1482 1481 1480 1479 1477 1476 1474 1473 1472 1470 1468 1467 1466 1465 1463 1462 1462 1462 1463 1463 1463 1463 1463 1464 1465 1465